Location: *
(50.5492°N, 7.7469°E)
Time: 17:35:38
(UTC+00:00)

Cosmos 1626 - Pass Details

Date: 21 October 2019
Orbit: 492 x 496 km, 82.5° (Epoch: 18 November)

Event Time Altitude Azimuth Distance (km) Brightness Sun altitude
Rises 16:51:20 0° 342° (NNW) 2,597 5.9 -4.8°
Reaches altitude 10° 16:53:35 10° 333° (NNW) 1,708 5.1 -5.1°
Maximum altitude 16:56:59 34° 268° (W) 843 4.2 -5.7°
Drops below altitude 10° 17:00:21 10° 203° (SSW) 1,692 5.3 -6.2°
Sets 17:02:34 0° 193° (SSW) 2,568 6.1 -6.5°
